This demonstration page uses our WeatherBlox Daily Observations layout. Learn more.

Left ArrowRight Arrow

39.51506, -84.39828

Hourly Observations for April 10, 2016

Temp ( °F °C ) Dew Point ( °F °C ) Humidity (%) Winds ( mph kmh ) Pressure ( in mb ) Visibility ( mi km ) Precip ( " mm )
12:15 am 00:15 Clear 29 -1.5 24 -4.3 81 81 N N/A 30.30 1026 10 16 N/A
12:35 am 00:35 Clear 29 -1.5 25 -4.1 83 83 N N/A 30.30 1026 10 16 N/A
12:55 am 00:55 Clear 29 -1.5 24 -4.5 80 80 N N/A 30.30 1026 10 16 N/A
1:15 am 01:15 Clear 29 -1.5 25 -4.1 83 83 N N/A 30.30 1026 10 16 N/A
1:35 am 01:35 Clear 29 -1.5 24 -4.3 81 81 N N/A 30.30 1026 10 16 N/A
1:55 am 01:55 Clear 30 -0.9 23 -4.9 75 75 N N/A 30.30 1026 10 16 N/A
2:15 am 02:15 Clear 32 0.1 22 -5.4 67 67 ESE 5 7 30.30 1026 10 16 N/A
2:35 am 02:35 Clear 33 0.5 23 -5.1 66 66 ESE 3 6 30.27 1025 10 16 N/A
2:55 am 02:55 Clear 32 undefined 22 -5.7 66 66 N N/A 30.30 1026 10 16 N/A
3:15 am 03:15 Clear 30 -0.9 22 -5.5 71 71 N N/A 30.27 1025 10 16 N/A
3:35 am 03:35 Partly Cloudy 32 undefined 23 -5.1 69 69 N N/A 30.27 1025 10 16 N/A
3:55 am 03:55 Partly Cloudy 32 undefined 22 -5.4 67 67 N N/A 30.30 1026 10 16 N/A
4:15 am 04:15 Mostly Cloudy 32 undefined 22 -5.4 67 67 N N/A 30.27 1025 10 16 N/A
4:35 am 04:35 Partly Cloudy 32 undefined 23 -5 69 69 N N/A 30.27 1025 10 16 N/A
4:55 am 04:55 Mostly Cloudy 34 1.2 24 -4.3 67 67 SE 3 6 30.27 1025 10 16 N/A
5:15 am 05:15 Cloudy 34 1.2 24 -4.5 66 66 S 5 7 30.27 1025 10 16 N/A
5:35 am 05:35 Cloudy 34 1.2 24 -4.5 66 66 SSE 7 11 30.27 1025 10 16 N/A
5:55 am 05:55 Cloudy 34 1.2 23 -4.8 65 65 SE 8 13 30.30 1026 10 16 N/A
6:15 am 06:15 Cloudy 34 1.2 24 -4.7 65 65 SE 9 15 30.27 1025 10 16 N/A
6:35 am 06:35 Cloudy 34 1.2 23 -5 64 64 SE 5 7 30.27 1025 10 16 N/A
6:55 am 06:55 Cloudy 34 1.2 22 -5.3 62 62 SSE 5 7 30.27 1025 10 16 N/A
7:15 am 07:15 Cloudy 34 1.2 22 -5.5 61 61 SE 8 13 30.27 1025 10 16 N/A
7:35 am 07:35 Cloudy 34 1.2 22 -5.8 60 60 SSE 9 15 30.27 1025 10 16 N/A
7:55 am 07:55 Cloudy 34 1.2 21 -6.1 59 59 SSE 9 15 30.27 1025 10 16 N/A
8:15 am 08:15 Cloudy 34 1.2 20 -6.4 57 57 SE 9 15 30.27 1025 10 16 N/A
8:35 am 08:35 Cloudy 34 1.2 20 -6.4 57 57 SSE 8 13 30.27 1025 10 16 N/A
8:55 am 08:55 Cloudy 35 1.5 21 -6.3 57 57 SSE 9 15 30.27 1025 10 16 N/A
9:15 am 09:15 Cloudy 36 2 21 -6.1 55 55 SSE 12 19 30.27 1025 10 16 N/A
9:35 am 09:35 Cloudy 37 2.6 22 -5.6 55 55 SSE 8 13 30.24 1024 10 16 N/A
9:55 am 09:55 Cloudy 37 2.6 21 -6.1 53 53 SE 8 13 30.24 1024 10 16 N/A
10:15 am 10:15 Cloudy 37 2.7 21 -6.3 52 52 SE 7 11 30.24 1024 10 16 N/A
10:35 am 10:35 Cloudy 39 4 22 -5.5 50 50 SE 8 13 30.24 1024 10 16 N/A
10:55 am 10:55 Cloudy 39 4 21 -6 48 48 SE 12 19 30.21 1023 10 16 N/A
11:15 am 11:15 Cloudy 41 4.8 21 -6.1 46 46 S 15 24 30.21 1023 10 16 N/A
11:35 am 11:35 Partly Cloudy 43 6 22 -5.8 43 43 SE 9 15 30.15 1021 10 16 N/A
11:55 am 11:55 Sunny 47 8.1 24 -4.3 42 42 SSE 8 13 30.15 1021 10 16 N/A
12:15 pm 12:15 Sunny 49 9.6 25 -3.7 39 39 SSE 13 20 30.12 1020 10 16 N/A
12:35 pm 12:35 Mostly Cloudy 49 9.6 22 -5.6 34 34 S 13 20 30.12 1020 10 16 N/A
12:55 pm 12:55 Mostly Cloudy 51 10.4 22 -5.3 33 33 S 12 19 30.09 1019 10 16 N/A
1:15 pm 13:15 Partly Cloudy 55 12.5 23 -5.2 29 29 S 12 19 30.09 1019 10 16 N/A
1:35 pm 13:35 Mostly Cloudy 55 12.5 20 -6.7 26 26 S 14 22 30.09 1019 10 16 N/A
1:55 pm 13:55 Mostly Cloudy 57 13.8 22 -5.7 26 26 SSW 20 31 30.06 1018 10 16 N/A
2:15 pm 14:15 Partly Cloudy 60 15.3 25 -4 26 26 S 12 19 30.06 1018 10 16 N/A
2:35 pm 14:35 Partly Cloudy 57 13.8 24 -4.6 28 28 SSW 17 28 30.06 1018 10 16 N/A
2:55 pm 14:55 Cloudy 57 13.8 26 -3.6 30 30 SSW 15 24 30.06 1018 10 16 N/A
3:15 pm 15:15 Cloudy 57 13.8 27 -2.9 32 32 S 14 22 30.06 1018 10 16 N/A
3:35 pm 15:35 Cloudy 57 13.8 27 -2.8 32 32 S 14 22 30.03 1017 10 16 N/A
3:55 pm 15:55 Cloudy 60 15.3 30 -1.1 33 33 S 16 26 29.97 1015 10 16 N/A
4:15 pm 16:15 Cloudy 60 15.3 30 -1.1 33 33 S 15 24 29.94 1014 10 16 N/A
4:35 pm 16:35 Cloudy 60 15.3 32 -0.1 35 35 S 16 26 29.94 1014 10 16 N/A
4:55 pm 16:55 Cloudy 60 15.3 34 0.9 38 38 S 13 20 29.91 1013 10 16 N/A
5:15 pm 17:15 Cloudy 61 16 36 2 39 39 S 15 24 29.91 1013 10 16 N/A
5:35 pm 17:35 Cloudy 60 15.8 36 2 40 40 S 13 20 29.91 1013 10 16 N/A
5:55 pm 17:55 Cloudy 60 15.8 36 2.2 40 40 S 15 24 29.91 1013 10 16 N/A
6:15 pm 18:15 Cloudy 60 15.3 36 2.1 41 41 S 13 20 29.91 1013 10 16 N/A
6:35 pm 18:35 Cloudy with Drizzle 60 15.3 37 2.5 42 42 SSW 14 22 29.91 1013 10 16 N/A
6:55 pm 18:55 Cloudy with Light Rain 57 13.8 42 5.8 59 59 S 9 15 29.94 1014 10 16 N/A
7:15 pm 19:15 Cloudy with Light Rain 57 13.8 44 6.7 62 62 SSW 9 15 29.94 1014 10 16 N/A
7:35 pm 19:35 Cloudy with Rain 56 13.5 46 7.7 68 68 S 9 15 29.94 1014 10 16 N/A
7:55 pm 19:55 Cloudy with Light Rain 55 12.5 47 8.1 75 75 SSW 6 9 29.94 1014 10 16 N/A
8:15 pm 20:15 Cloudy with Light Rain 55 12.5 48 8.8 78 78 SSW 9 15 29.94 1014 10 16 N/A
8:35 pm 20:35 Cloudy with Rain 55 12.5 47 8.6 77 77 SSW 12 19 29.91 1013 10 16 N/A
8:55 pm 20:55 Cloudy with Light Rain 55 12.5 48 9 79 79 SSW 12 19 29.91 1013 10 16 N/A
9:15 pm 21:15 Cloudy with Light Rain 55 12.5 49 9.2 80 80 SSW 10 17 29.94 1014 10 16 N/A
9:35 pm 21:35 Cloudy with Rain 55 12.5 49 9.3 81 81 SSW 13 20 29.94 1014 10 16 N/A
9:55 pm 21:55 Cloudy with Light Rain 55 12.5 49 9.7 83 83 SSW 10 17 29.94 1014 10 16 N/A
10:15 pm 22:15 Cloudy with Light Rain 55 12.5 49 9.6 83 83 SSW 14 22 29.94 1014 10 16 N/A
10:35 pm 22:35 Cloudy with Light Rain 55 12.5 49 9.5 82 82 SSW 15 24 29.94 1014 10 16 N/A
10:55 pm 22:55 Cloudy with Light Rain 55 12.5 48 9.1 80 80 SSW 13 20 29.94 1014 10 16 N/A
11:15 pm 23:15 Cloudy with Light Rain 55 12.5 47 8.5 77 77 SSW 13 20 29.94 1014 10 16 N/A
11:35 pm 23:35 Cloudy 55 12.5 47 8.1 75 75 SSW 8 13 29.94 1014 10 16 N/A
11:55 pm 23:55 Cloudy with Rain 55 12.5 46 8 74 74 S 9 15 29.94 1014 10 16 N/A

Powered by AerisWeather